Weather History for Jackson, MS

Change the Weather History Date:

Sunday, February 3, 2013

  Actual Average Record
Temperature  
Mean Temperature 50 °F 47 °F  
Max Temperature 66 °F 58 °F 86 °F (1896)
Min Temperature 33 °F 36 °F 4 °F (1951)
Degree Days  
Heating Degree Days 15 18  
Month to date heating degree days 50 54  
Since 1 July heating degree days 1376 1606  
Cooling Degree Days 0 0  
Month to date cooling degree days 0 0  
Year to date cooling degree days 14 4  
Moisture  
Dew Point 33 °F    
Average Humidity 60    
Maximum Humidity 96    
Minimum Humidity 24    
Precipitation  
Precipitation 0.00 in 0.18 in 2.88 in (1936)
Month to date precipitation 0.00 0.54  
Year to date precipitation 8.58 5.51  
Sea Level Pressure  
Sea Level Pressure 30.20 in    
Wind  
Wind Speed 4 mph (WNW)    
Max Wind Speed 18 mph    
Max Gust Speed 26 mph    
Visibility 10 miles    
Events      
T = Trace of Precipitation, MM = Missing Value Source: NWS Daily Summary

Daily Weather History Graph

Daily Weather History Graph

Search for Another Location

Airport:

Trip Planner

Search our weather history database for the weather conditions in past years. The results will help you decide how hot, cold, wet, or windy it might be!

Date:

Astronomy

Feb. 03, 2013 Rise Set
Actual Time 6:52 AM CST 5:35 PM CST
Civil Twilight 6:27 AM CST 6:01 PM CST
Nautical Twilight 5:58 AM CST 6:30 PM CST
Astronomical Twilight 5:29 AM CST 6:59 PM CST
Moon 12:19 AM CST (2/3) 11:15 AM CST (2/3)
Length of Visible Light 11h 34m
Length of Day
10h 43m
Waning Gibbous, 48% of the Moon is Illuminated
Feb 3
Waning Gibbous
Feb 10
New
Feb 17
First Quarter
Feb 25
Full
Mar 4
Last Quarter

Hourly Weather History & Observations

Time (CST) Temp. Dew Point Humidity Pressure Visibility Wind Dir Wind Speed Gust Speed Precip Events Conditions
12:54 AM 41.0 °F 37.9 °F 89% 30.24 in 10.0 mi Calm Calm - N/A   Clear
1:54 AM 37.9 °F 35.1 °F 89% 30.22 in 10.0 mi Calm Calm - N/A   Clear
2:54 AM 36.0 °F 34.0 °F 93% 30.22 in 10.0 mi Calm Calm - N/A   Clear
3:54 AM 36.0 °F 34.0 °F 93% 30.22 in 10.0 mi Calm Calm - N/A   Clear
4:54 AM 35.1 °F 32.0 °F 89% 30.23 in 10.0 mi Calm Calm - N/A   Clear
5:54 AM 35.1 °F 33.1 °F 92% 30.25 in 9.0 mi Calm Calm - N/A   Clear
6:54 AM 34.0 °F 32.0 °F 92% 30.26 in 5.0 mi Calm Calm - N/A   Clear
7:54 AM 39.0 °F 36.0 °F 89% 30.26 in 6.0 mi Calm Calm - N/A   Clear
8:54 AM 46.9 °F 41.0 °F 80% 30.26 in 10.0 mi SW 3.5 mph - N/A   Clear
9:54 AM 55.9 °F 39.0 °F 53% 30.26 in 10.0 mi WSW 5.8 mph - N/A   Clear
10:54 AM 62.1 °F 34.0 °F 35% 30.25 in 10.0 mi West 10.4 mph - N/A   Clear
11:54 AM 64.0 °F 32.0 °F 30% 30.22 in 10.0 mi West 9.2 mph - N/A   Clear
12:54 PM 66.0 °F 28.9 °F 25% 30.19 in 10.0 mi WNW 9.2 mph 17.3 mph N/A   Clear
1:54 PM 66.0 °F 28.0 °F 24% 30.17 in 10.0 mi West 9.2 mph 20.7 mph N/A   Clear
2:54 PM 64.9 °F 26.1 °F 23% 30.16 in 10.0 mi NW 13.8 mph 23.0 mph N/A   Clear
3:54 PM 64.0 °F 26.1 °F 24% 30.15 in 10.0 mi NW 10.4 mph 19.6 mph N/A   Clear
4:54 PM 62.1 °F 28.0 °F 28% 30.16 in 10.0 mi NW 10.4 mph - N/A   Clear
5:54 PM 57.0 °F 30.0 °F 36% 30.17 in 10.0 mi WNW 4.6 mph - N/A   Clear
6:54 PM 51.1 °F 32.0 °F 48% 30.17 in 10.0 mi Calm Calm - N/A   Clear
7:54 PM 48.0 °F 30.9 °F 52% 30.17 in 10.0 mi NNE 4.6 mph - N/A   Clear
8:54 PM 42.1 °F 32.0 °F 67% 30.17 in 10.0 mi Calm Calm - N/A   Clear
9:54 PM 39.2 °F 32.0 °F 75% 30.16 in 10.0 mi Calm Calm - N/A   Clear
10:54 PM 39.9 °F 32.0 °F 73% 30.15 in 10.0 mi Calm Calm - N/A   Clear
11:54 PM 39.9 °F 34.0 °F 79% 30.14 in 10.0 mi Calm Calm - N/A   Clear